Location: Alphen
(52.1351°N, 4.6549°E)
Time: 01:46:59
(UTC+00:00)

BREEZE-M DEB (TANK) - Pass Details

Date: 27 January 2021
Orbit: 326 x 16272 km, 49.5° (Epoch: 27 February)

Event Time Altitude Azimuth Distance (km) Brightness Sun altitude
Rises 03:19:03 0° 280° (W) 13,289 8.9 -37.9°
Enters shadow 03:22:03 - 280° (W) 12,528 8.8 -37.5°
Exits shadow 03:55:17 65° 207° (SSW) 1,605 4.3 -32.5°
Maximum altitude 03:55:18 65° 207° (SSW) 1,603 4.3 -32.5°
Drops below altitude 10° 04:00:13 10° 125° (SE) 2,325 6.0 -31.8°
Sets 04:01:37 0° 121° (ESE) 2,905 6.6 -31.6°
